STARLINK-31702, 59585

Orbit data source: Space-Track

STARLINK-31702, 59585 is a payload satellite owned by SpaceX/Seattle (US) in LEO that was launched on Tue, 23 Apr 2024 UTC via an FALCON 9 launch vehicle from the Air Force Eastern Test Range (AFETR). Payload-class satellites include a variety of spacecraft equipped with specific instruments for various scientific and technological missions. These include communications satellites like Starlink; space stations such as the ISS; scientific satellites like the Hubble; Earth observation satellites from companies like Planet Labs, Umbra, and HawkEye 360; GPS; miniature CubeSats for education and research; and military/defense satellites.

Loading next visibility...
Identifier
59585, 2024-076X
Orbit
LEO
Country
Flag of USUS
Related business
Manufacturer
SpaceX/Seattle
Mission
Operational Commercial Communications
Bus & Motor
STARLINK V2M, Unknown motor
Mass
730 kg wet, ~700 kg dry
Launch date (UTC)
2024-04-23 (2 years ago)
Launch vehicle
FALCON 9
Launch site
Air Force Eastern Test Range (AFETR)
Object type
Payload
Rocket body
Debris
Shape & HBR
Box + 2 Pan, 17.7 m
Radar Cross Section
33.884 m², Large (>1 m²)

Expand to show TLE details & history
Last TLE update: 8 hours ago

TLE from 8 hours ago
0 STARLINK-31702
1 59585U 24076X   26035.76663859  .00001792  00000-0  74695-4 0  9991
2 59585  43.0012 195.2642 0001425 273.0830  86.9859 15.27541709101466
Epoch: 2026-02-04T18:23Z
TLE epoch observation values (Epoch: 2026-02-04T18:23:57.574Z)
Latitude
0.00002°
Longitude
144.34583°
Altitude
482.888 km
Speed
7.626 km/s
True Right ascension
13h 01m 03s
True Declination
0° 00' 00"
Sunlit
Object was in full shadow at epoch
Visualization orbit readout
Latitude
Unknown
Longitude
Unknown
Altitude
Unknown
Speed
Unknown
Apparent Right ascension
Unknown
Apparent Declination
Unknown
Sunlit
N/A
Visualization observer readout
Local Sidereal Time
03:54:35
Azimuth
Unknown
Elevation
Unknown
Doppler factor
Unknown
Orbital elements
Apogee altitude
486.087 km
Perigee altitude
484.131 km
Semi-major axis
6,863.246 km
Eccentricity
0.00014
Inclination
43.0012°
RAAN
195.2642°
Arg. of periapsis
273.083°
True anomaly
87.00221°
Mean anomaly
86.9859°
Eccentric anomaly
86.99405°
Mean motion
3.81723 °/min
Orbital period
94.31 mins
BSTAR
0.000074695
Loading maneuver chart data...
Computing Atmospheric mass density...
Loading historical data...
Loading historical data...
Loading historical data...
Loading historical data...
Loading historical data...
Loading historical data...
Loading historical data...

Documentation

Showing up to 5 results
|